Weather History for KBUY - April, 2013

Change the Weather History Date:

Monday, April 8, 2013

  Actual Average Record
Temperature  
Mean Temperature 66 °F -  
Max Temperature 79 °F 69 °F 89 °F (2001)
Min Temperature 52 °F 42 °F 28 °F (1982)
Growing Degree Days 16 (Base 50)    
Moisture  
Dew Point 50 °F    
Average Humidity 60    
Maximum Humidity 93    
Minimum Humidity 36    
Precipitation  
Precipitation 0.00 in - - ()
Sea Level Pressure  
Sea Level Pressure 30.10 in    
Wind  
Wind Speed 5 mph (SSW)    
Max Wind Speed 16 mph    
Max Gust Speed 23 mph    
Visibility 10 miles    
Events      
Averages and records for this station are not official NWS values.
T = Trace of Precipitation, MM = Missing Value Source: NWS Daily Summary

Daily Weather History Graph

Daily Weather History Graph

Search for Another Location

Airport or City:

Trip Planner

Search our weather history database for the weather conditions in past years. The results will help you decide how hot, cold, wet, or windy it might be!

Date:

Astronomy

Apr. 08, 2013 Rise Set
Actual Time 6:53 AM EDT 7:45 PM EDT
Civil Twilight 6:27 AM EDT 8:12 PM EDT
Nautical Twilight 5:57 AM EDT 8:42 PM EDT
Astronomical Twilight 5:25 AM EDT 9:14 PM EDT
Moon 5:40 AM EDT (4/8) 6:20 PM EDT (4/8)
Length of Visible Light 13h 44m
Length of Day
12h 51m
Waning Crescent, 3% of the Moon is Illuminated
Apr 8
Waning Crescent
Apr 10
New
Apr 18
First Quarter
Apr 25
Full
May 2
Last Quarter

Hourly Weather History & Observations

Time (EDT) Temp. Dew Point Humidity Pressure Visibility Wind Dir Wind Speed Gust Speed Precip Events Conditions
12:54 AM 57.9 °F 46.0 °F 65% 30.11 in 10.0 mi South 6.9 mph - N/A   Clear
1:54 AM 55.9 °F 48.0 °F 75% 30.11 in 10.0 mi Calm Calm - N/A   Clear
2:54 AM 55.0 °F 48.9 °F 80% 30.10 in 10.0 mi Calm Calm - N/A   Clear
3:54 AM 55.9 °F 50.0 °F 80% 30.10 in 10.0 mi Calm Calm - N/A   Clear
4:54 AM 55.0 °F 50.0 °F 83% 30.10 in 10.0 mi Calm Calm - N/A   Clear
5:54 AM 53.1 °F 50.0 °F 89% 30.11 in 10.0 mi Calm Calm - N/A   Clear
6:54 AM 52.0 °F 50.0 °F 93% 30.13 in 10.0 mi Calm Calm - N/A   Clear
7:54 AM 55.9 °F 52.0 °F 87% 30.15 in 10.0 mi SSW 3.5 mph - N/A   Clear
8:54 AM 61.0 °F 54.0 °F 78% 30.15 in 10.0 mi SW 9.2 mph - N/A   Clear
9:54 AM 66.0 °F 53.1 °F 63% 30.15 in 10.0 mi SW 12.7 mph - N/A   Clear
10:54 AM 69.1 °F 54.0 °F 58% 30.15 in 10.0 mi WSW 9.2 mph - N/A   Clear
11:54 AM 73.0 °F 54.0 °F 51% 30.14 in 10.0 mi WSW 9.2 mph - N/A   Clear
12:54 PM 75.0 °F 52.0 °F 44% 30.11 in 10.0 mi SSW 12.7 mph 19.6 mph N/A   Clear
1:54 PM 77.0 °F 51.1 °F 40% 30.09 in 10.0 mi SSW 10.4 mph 21.9 mph N/A   Scattered Clouds
2:54 PM 78.1 °F 50.0 °F 37% 30.07 in 10.0 mi SSW 11.5 mph 19.6 mph N/A   Mostly Cloudy
3:54 PM 79.0 °F 50.0 °F 36% 30.05 in 10.0 mi South 11.5 mph 18.4 mph N/A   Mostly Cloudy
4:54 PM 77.0 °F 48.9 °F 37% 30.04 in 10.0 mi South 16.1 mph 23.0 mph N/A   Mostly Cloudy
5:54 PM 77.0 °F 48.9 °F 37% 30.04 in 10.0 mi SSW 10.4 mph - N/A   Clear
6:54 PM 75.9 °F 48.0 °F 37% 30.04 in 10.0 mi SSW 8.1 mph - N/A   Clear
7:54 PM 72.0 °F 48.9 °F 44% 30.05 in 10.0 mi South 3.5 mph - N/A   Clear
8:54 PM 70.0 °F 48.9 °F 47% 30.07 in 10.0 mi South 4.6 mph - N/A   Clear
9:54 PM 66.9 °F 50.0 °F 54% 30.08 in 10.0 mi South 3.5 mph - N/A   Clear
10:54 PM 66.0 °F 51.1 °F 59% 30.08 in 10.0 mi South 4.6 mph - N/A   Clear
11:54 PM 66.0 °F 51.1 °F 59% 30.07 in 10.0 mi South 3.5 mph - N/A   Clear